Wind_Speed
9 13 14 17 7 11 19 15 37 28 28 31 27 25 25 21 16 7 9 4 3 5 7 8 8 9 9 9 9 10 11 12 13 13 12 12 11 11 11 10 9 8 8 7 7 6 6 7 7
7 10 16 13 7 8 11 7 12 21 21 22 24 25 23 21 12 14 15 8 7 6 7 9 8 7 7 7 8 8 8 8 9 9 10 9 9 8 8 8 8 7 6 6 5 4 4 4 4
6 12 11 5 6 11 3 12 8 9 7 10 16 14 12 12 14 12 15 9 8 8 8 8 9 7 6 5 4 4 5 6 6 7 7 7 7 7 7 6 5 5 4 4 4 3 2 1 2
7 11 8 7 11 9 9 5 9 3 5 12 12 9 7 9 8 10 13 11 9 8 8 9 9 8 8 7 4 2 1 2 4 5 6 7 7 7 6 6 6 5 5 4 3 2 2 2 2
8 6 8 10 16 17 18 16 10 8 3 11 6 11 5 5 2 4 9 10 8 8 8 9 9 8 8 7 6 4 3 2 2 4 5 5 6 6 6 7 7 6 5 4 4 4 5 5 5
4 5 12 17 21 21 3 1 2 13 14 9 6 13 8 4 1 4 3 6 5 7 7 7 6 7 8 7 5 3 3 2 3 4 6 6 7 7 7 7 7 6 6 7 7 7 7 8 8
5 6 17 16 19 5 9 8 4 9 12 9 9 12 16 12 7 8 15 14 10 8 8 7 5 3 4 5 5 4 3 4 5 6 7 8 9 10 10 10 10 9 9 10 10 10 10 11 11
5 11 14 11 18 11 11 13 10 8 6 3 10 14 18 15 7 1 9 18 21 16 16 13 14 11 8 11 11 7 7 7 8 8 9 10 11 11 11 11 11 11 12 12 12 12 13 13 13
12 18 18 10 19 10 3 14 13 11 6 10 10 3 13 15 9 1 4 11 16 19 20 15 15 8 9 13 17 15 13 10 11 11 11 12 12 12 12 12 12 12 14 14 15 16 16 15 16
15 28 30 16 10 12 16 18 16 10 12 6 7 4 1 9 14 10 3 16 18 19 15 15 13 12 16 17 22 18 15 15 13 14 13 13 13 13 13 12 13 14 14 15 15 15 15 16 16
13 21 24 27 24 16 17 22 17 12 5 14 11 7 8 10 13 15 11 5 14 16 17 15 20 21 27 31 31 31 17 13 18 16 14 15 14 14 14 15 14 14 14 15 14 13 14 16 16
23 23 15 23 19 11 24 20 23 14 13 8 5 2 5 7 15 14 11 8 8 12 15 20 23 27 34 35 36 35 23 17 17 16 15 17 16 16 15 14 14 14 13 14 12 13 17 16 17
22 29 23 18 19 23 17 32 31 24 21 18 14 10 13 16 15 15 15 12 17 14 17 22 24 26 30 33 38 33 22 20 19 21 19 17 17 16 14 14 13 13 14 16 14 17 21 21 23
20 23 29 18 13 24 28 21 20 25 23 32 23 18 16 18 14 9 15 18 22 20 19 25 28 28 27 30 30 25 24 25 26 25 18 14 15 18 12 10 12 14 13 12 17 19 21 23 24
19 15 16 13 15 22 25 25 26 24 16 27 28 25 22 22 10 13 15 19 23 31 29 27 28 31 32 27 20 16 22 24 25 23 22 25 25 22 9 17 13 15 18 19 21 20 20 20 18
11 16 15 30 25 27 24 22 17 12 12 19 24 21 20 22 11 13 15 18 25 26 30 30 35 32 26 25 24 23 19 20 22 24 20 18 19 8 4 15 15 17 18 18 19 19 20 19 20
12 18 23 29 24 27 32 29 6 7 13 15 19 17 11 9 19 14 21 19 19 23 31 31 30 31 26 25 26 22 19 14 20 20 20 15 12 10 9 13 13 16 17 18 18 21 22 23 25
19 23 28 30 29 27 32 22 12 12 19 15 15 7 6 16 18 20 25 27 28 28 31 28 28 34 32 26 25 22 19 19 17 16 20 14 7 9 12 11 13 15 17 20 22 24 26 30 34
26 25 23 4 1 15 13 14 18 17 16 16 16 9 17 17 23 24 24 25 25 25 27 29 33 36 31 25 23 23 22 22 20 19 25 17 14 16 16 18 19 20 22 24 26 28 32 34 38
7 7 11 12 8 6 7 13 19 17 18 16 16 15 15 18 21 25 25 29 32 34 32 27 26 32 33 25 24 26 21 25 24 24 19 19 20 19 23 24 23 23 23 25 28 32 37 39 40
7 9 11 8 9 5 8 16 17 18 20 24 21 18 16 19 22 28 30 23 17 15 15 13 14 22 25 27 26 25 24 28 32 23 22 22 24 25 26 27 26 24 25 27 31 34 38 42 40
10 5 6 5 10 12 13 9 23 23 17 25 21 14 18 18 21 24 25 19 14 9 12 8 12 18 23 25 27 23 29 28 31 28 23 30 36 30 26 27 25 24 29 31 34 35 37 41 45
1 6 9 13 14 17 22 17 23 14 20 10 5 5 8 10 13 12 18 22 24 26 23 15 12 14 16 20 22 25 29 32 33 31 32 39 38 35 30 28 26 29 32 34 36 38 40 44 47
13 15 14 13 16 11 22 19 6 13 7 12 7 8 10 8 9 5 3 11 13 23 16 12 17 18 17 19 19 20 24 29 35 32 31 30 29 31 31 33 32 33 34 35 36 38 41 43 46
4 8 4 4 4 4 16 7 17 23 20 16 18 19 17 15 13 13 12 12 9 10 15 21 24 25 25 25 27 24 23 24 30 32 31 33 32 32 35 35 34 35 35 35 37 38 40 44 49
2 5 7 2 2 6 10 13 15 13 14 10 9 12 13 12 12 8 9 13 14 14 18 16 15 21 25 29 36 38 34 31 33 37 41 42 42 41 40 40 38 38 36 37 36 38 40 45 47
4 10 6 7 11 4 14 22 13 12 13 8 5 7 8 11 11 15 17 19 18 21 23 26 28 32 33 38 27 44 44 51 54 52 52 51 50 48 45 43 40 38 37 36 34 35 36 41 42
1 5 5 6 0 3 7 16 16 16 10 8 7 7 14 16 16 13 15 18 22 22 23 30 37 42 48 48 42 44 45 48 48 49 51 48 46 45 46 50 48 41 37 34 36 37 38 40 38
2 2 8 8 5 2 2 7 9 13 16 17 8 15 10 14 19 24 29 33 36 38 43 46 50 51 53 54 58 62 54 48 49 51 46 42 41 42 46 41 37 35 41 47 47 42 38 37 37
5 7 6 2 3 10 10 10 19 23 16 16 15 16 19 21 25 29 31 32 36 39 42 46 50 51 52 55 57 53 55 57 53 48 42 42 46 52 49 47 47 44 43 40 34 38 42 34 35
Wind_Direction
290 305 303 306 354 2 333 346 103 117 106 81 82 91 106 107 128 163 112 200 169 108 88 101 115 132 141 145 148 153 153 150 148 144 141 142 145 143 139 136 136 135 131 126 118 104 90 84 80
273 287 300 313 326 316 338 55 38 89 98 61 83 91 103 110 114 100 97 142 109 91 80 84 92 108 124 135 142 150 156 158 156 151 149 149 150 147 144 144 145 144 140 131 124 117 109 102 90
249 277 281 325 301 292 312 322 33 58 77 115 106 98 85 98 106 93 97 111 109 100 87 77 75 79 93 105 122 141 157 169 169 168 166 165 163 161 162 162 157 154 152 156 158 158 153 118 94
234 260 273 289 295 328 3 340 287 84 123 154 125 98 92 105 105 105 103 104 105 102 97 92 87 79 75 72 63 68 128 196 203 200 193 189 185 180 181 184 185 190 195 201 214 233 249 265 288
226 230 277 297 308 315 278 294 286 319 93 150 169 134 127 137 140 90 90 93 98 104 106 99 92 88 78 69 58 44 29 350 288 265 245 234 225 217 214 212 216 217 227 243 256 266 277 285 293
190 330 296 314 327 337 47 97 183 9 154 72 82 113 111 112 308 293 336 103 97 106 102 92 89 83 73 65 55 40 9 332 294 279 274 266 257 252 252 251 253 258 264 266 270 273 277 282 288
217 313 299 319 343 320 58 46 313 7 94 74 104 119 103 87 60 340 323 328 35 15 11 3 7 17 31 26 14 356 330 301 292 281 269 264 261 258 253 252 253 255 258 262 265 267 269 272 276
238 300 281 324 330 351 174 0 348 331 9 0 127 140 125 134 120 10 330 345 346 342 337 335 328 312 345 348 344 336 317 297 282 280 283 283 276 271 266 261 260 260 261 263 264 265 267 271 273
238 271 264 293 355 325 185 2 41 19 348 344 334 125 153 139 114 172 297 316 314 314 313 321 315 286 302 331 331 321 314 303 292 283 281 281 279 275 273 272 268 264 263 265 268 273 276 278 282
225 248 263 262 287 314 235 334 319 2 41 29 354 326 178 184 141 176 245 304 303 287 291 298 289 287 285 298 309 311 305 299 293 286 289 281 280 279 275 269 269 276 275 272 275 278 284 284 282
234 253 271 264 267 262 257 320 307 316 321 21 51 97 125 150 169 179 177 242 308 276 286 275 283 281 292 305 314 316 311 299 299 283 279 279 276 275 272 280 286 280 278 279 277 285 291 288 292
241 252 275 262 268 281 262 300 308 280 274 316 357 263 163 180 183 175 183 239 292 250 254 267 276 285 298 305 306 307 309 309 303 275 285 287 293 281 283 270 267 261 264 267 269 277 285 289 293
243 249 253 270 283 263 251 254 284 290 281 263 273 273 285 278 254 244 212 228 243 271 275 266 264 271 282 287 295 297 306 305 292 272 277 282 279 278 283 277 272 267 271 276 291 290 294 296 298
252 257 255 258 274 252 257 250 245 253 284 271 280 276 266 269 281 259 263 232 239 249 267 263 264 266 274 283 289 300 307 303 295 290 294 240 263 251 235 255 253 256 262 284 279 280 285 287 287
268 267 234 244 246 261 265 254 269 266 267 250 274 256 256 260 251 256 261 257 233 243 251 261 266 269 270 278 283 288 294 289 282 276 267 260 281 242 214 249 242 265 283 283 292 299 297 298 296
281 260 256 249 254 247 248 258 303 280 270 272 258 255 264 282 280 253 262 260 244 241 247 261 265 275 276 279 288 293 296 287 275 274 265 269 301 259 183 228 267 280 283 288 295 296 298 297 296
240 263 252 270 261 249 234 237 248 290 276 274 268 283 278 246 253 237 238 230 232 242 249 261 274 279 281 284 293 294 303 293 274 265 268 260 271 287 307 283 280 273 282 290 290 296 303 303 301
258 255 265 275 286 245 216 232 224 265 275 263 266 262 183 242 242 238 233 242 250 252 262 267 282 278 270 271 280 286 298 280 270 272 260 300 258 270 259 268 281 280 284 291 294 299 302 308 309
245 256 275 329 222 162 187 216 230 230 235 270 252 198 217 241 248 244 240 246 252 256 263 266 276 268 266 258 267 273 282 273 270 268 278 286 281 275 285 279 276 281 285 291 295 301 306 307 308
231 272 284 308 143 178 217 253 278 272 263 245 223 186 210 234 254 254 251 256 260 262 268 269 260 248 251 253 257 268 265 265 273 269 262 270 273 274 272 274 276 277 283 288 297 301 304 307 311
289 290 286 334 296 283 298 297 274 284 265 236 231 225 225 236 252 262 264 272 263 262 264 273 262 254 256 258 259 263 265 259 258 236 268 273 269 272 269 268 270 276 279 284 291 298 302 305 311
264 307 289 310 319 322 305 297 286 278 234 203 212 228 232 240 257 273 288 314 315 312 315 283 270 257 257 262 259 262 268 255 255 265 253 260 269 274 269 263 267 275 280 287 293 297 304 310 313
143 333 309 308 286 303 281 281 285 241 178 171 191 242 223 242 280 286 306 311 309 304 303 290 281 277 266 258 261 264 253 253 248 250 257 262 265 269 269 271 273 276 281 286 291 298 305 312 313
314 303 309 282 267 263 287 256 315 127 161 168 184 183 185 175 189 223 273 266 268 275 274 249 249 260 267 270 265 255 256 255 252 254 252 259 261 262 268 273 276 278 281 287 294 300 307 313 317
300 350 313 351 171 205 19 45 79 106 128 144 167 165 159 188 200 214 224 239 238 251 257 263 267 266 262 261 261 257 256 259 257 259 263 264 269 274 274 274 276 278 283 288 293 299 307 309 315
27 11 48 320 38 297 9 63 76 89 82 82 105 164 175 198 214 229 255 261 250 259 258 259 253 260 270 267 265 263 248 248 255 263 265 264 265 267 270 272 272 273 278 283 293 302 307 309 309
31 32 356 325 330 352 111 103 61 15 355 0 333 323 323 313 296 286 264 274 266 275 265 256 261 264 261 270 258 273 270 280 280 274 269 266 268 269 271 273 277 281 286 291 298 301 306 305 304
67 341 11 0 144 289 304 73 78 42 57 320 3 309 289 282 278 254 257 261 264 267 276 280 276 271 270 274 261 280 267 272 273 277 279 283 272 267 269 271 270 274 276 291 301 297 299 298 297
159 346 346 325 350 156 341 292 333 17 355 331 296 283 282 269 271 266 263 266 267 270 277 277 277 278 280 283 285 284 283 266 268 270 271 268 278 284 286 284 281 281 282 277 284 297 290 291 291
306 343 344 307 314 303 294 286 288 319 325 298 278 270 268 271 271 271 269 271 273 272 274 282 285 285 284 284 282 275 280 280 275 277 276 277 282 279 283 283 282 282 285 289 274 282 285 285 286
Height
3184 3183 3182 3182 3186 3182 3178 3180 3165 3172 3175 3178 3179 3178 3179 3183 3186 3190 3188 3190 3191 3190 3188 3187 3187 3187 3187 3187 3187 3188 3188 3189 3189 3190 3190 3191 3192 3193 3193 3194 3195 3196 3196 3197 3197 3198 3199 3199 3199
3185 3184 3182 3182 3185 3184 3180 3181 3174 3180 3175 3180 3181 3178 3181 3182 3185 3185 3189 3190 3190 3190 3189 3188 3188 3188 3188 3188 3188 3189 3190 3190 3191 3191 3191 3192 3193 3193 3194 3195 3196 3196 3196 3197 3198 3198 3198 3198 3199
3184 3182 3184 3183 3183 3183 3183 3182 3187 3180 3177 3178 3176 3181 3182 3182 3182 3184 3187 3188 3189 3190 3190 3189 3189 3190 3190 3189 3190 3190 3190 3191 3191 3191 3192 3193 3193 3193 3194 3195 3196 3196 3197 3197 3197 3198 3198 3199 3199
3182 3182 3184 3183 3184 3183 3183 3184 3184 3186 3178 3178 3174 3176 3181 3182 3183 3186 3188 3188 3189 3190 3190 3189 3190 3191 3190 3190 3191 3192 3191 3191 3191 3191 3192 3192 3193 3193 3194 3194 3195 3195 3195 3196 3197 3198 3198 3198 3199
3182 3182 3182 3183 3184 3185 3183 3185 3185 3184 3185 3177 3177 3178 3181 3184 3184 3186 3188 3189 3189 3189 3189 3189 3190 3191 3191 3191 3191 3192 3192 3191 3192 3192 3192 3192 3192 3192 3192 3193 3193 3194 3194 3195 3196 3197 3198 3198 3198
3181 3182 3181 3182 3184 3183 3182 3185 3184 3183 3181 3183 3177 3179 3182 3183 3183 3184 3187 3191 3191 3190 3190 3190 3190 3191 3190 3191 3192 3192 3192 3191 3191 3191 3191 3191 3191 3191 3192 3192 3193 3194 3194 3195 3195 3195 3195 3196 3197
3179 3181 3180 3182 3183 3182 3183 3179 3184 3184 3185 3185 3178 3176 3181 3184 3183 3182 3182 3185 3190 3190 3191 3192 3192 3191 3191 3191 3192 3191 3190 3190 3190 3190 3189 3189 3189 3190 3190 3191 3191 3192 3192 3193 3193 3193 3193 3193 3194
3180 3179 3178 3182 3183 3184 3182 3182 3186 3183 3184 3183 3180 3180 3181 3185 3184 3184 3182 3183 3184 3188 3191 3192 3192 3192 3191 3192 3191 3190 3190 3189 3188 3188 3189 3189 3189 3190 3190 3190 3190 3191 3191 3190 3190 3190 3190 3190 3190
3177 3178 3178 3181 3181 3182 3183 3182 3183 3183 3185 3184 3183 3182 3184 3186 3190 3188 3186 3184 3184 3184 3185 3187 3189 3189 3190 3191 3191 3190 3188 3187 3187 3188 3188 3188 3188 3187 3188 3188 3189 3189 3188 3189 3188 3188 3188 3188 3188
3176 3177 3178 3182 3182 3181 3178 3182 3184 3183 3185 3186 3183 3183 3185 3188 3190 3192 3192 3186 3184 3183 3184 3184 3184 3187 3190 3190 3191 3189 3186 3185 3186 3186 3186 3185 3185 3185 3185 3186 3186 3187 3187 3186 3186 3186 3186 3185 3185
3174 3173 3177 3179 3180 3182 3180 3180 3183 3182 3183 3187 3185 3183 3184 3186 3188 3190 3192 3191 3184 3182 3183 3183 3182 3181 3185 3185 3182 3182 3183 3183 3184 3183 3182 3181 3182 3183 3184 3185 3185 3185 3184 3184 3183 3183 3183 3183 3182
3172 3172 3175 3177 3178 3180 3179 3176 3180 3181 3180 3185 3186 3185 3184 3185 3187 3187 3189 3187 3185 3182 3181 3180 3179 3176 3176 3176 3176 3177 3180 3181 3180 3180 3178 3178 3178 3178 3181 3181 3181 3181 3179 3179 3181 3179 3179 3179 3178
3169 3170 3173 3173 3174 3177 3178 3178 3178 3178 3179 3179 3182 3182 3181 3183 3186 3186 3188 3188 3185 3183 3181 3180 3180 3178 3178 3177 3177 3175 3177 3177 3177 3177 3175 3175 3174 3173 3174 3177 3178 3180 3176 3177 3176 3175 3175 3174 3173
3166 3167 3167 3168 3170 3173 3173 3174 3175 3175 3176 3176 3178 3177 3177 3178 3181 3181 3182 3184 3181 3181 3179 3177 3178 3181 3182 3178 3176 3172 3171 3171 3170 3169 3170 3170 3170 3170 3174 3174 3170 3173 3174 3173 3174 3172 3172 3170 3168
3164 3164 3164 3166 3167 3166 3170 3166 3167 3172 3171 3172 3172 3172 3172 3173 3176 3177 3177 3179 3178 3175 3177 3176 3175 3175 3177 3177 3175 3175 3172 3169 3168 3167 3169 3169 3168 3165 3166 3169 3175 3172 3171 3168 3170 3169 3166 3165 3163
3159 3159 3161 3160 3162 3161 3166 3162 3165 3164 3165 3165 3166 3168 3169 3170 3171 3173 3171 3173 3173 3171 3169 3171 3170 3172 3172 3173 3171 3171 3171 3168 3165 3165 3166 3166 3161 3162 3163 3167 3170 3170 3166 3165 3167 3165 3162 3161 3158
3156 3157 3157 3153 3154 3155 3159 3156 3162 3160 3162 3163 3164 3165 3165 3169 3164 3165 3165 3166 3168 3166 3168 3168 3167 3166 3165 3165 3166 3165 3166 3165 3160 3159 3160 3161 3163 3160 3161 3162 3165 3164 3165 3164 3163 3160 3156 3156 3154
3155 3154 3154 3150 3142 3144 3150 3155 3158 3161 3159 3161 3161 3162 3164 3161 3163 3162 3161 3162 3164 3165 3165 3164 3164 3160 3161 3162 3162 3162 3163 3159 3158 3158 3158 3157 3161 3158 3160 3161 3161 3162 3162 3160 3156 3154 3152 3149 3148
3152 3152 3152 3152 3147 3147 3151 3153 3156 3157 3157 3158 3159 3160 3159 3157 3156 3158 3159 3158 3158 3158 3159 3161 3160 3152 3156 3158 3158 3157 3157 3154 3154 3157 3156 3156 3158 3157 3156 3157 3158 3158 3156 3152 3150 3148 3146 3146 3141
3150 3148 3148 3150 3148 3149 3150 3151 3151 3152 3151 3155 3156 3155 3153 3151 3150 3151 3155 3154 3153 3155 3155 3155 3152 3149 3150 3152 3152 3153 3153 3150 3149 3150 3151 3152 3154 3153 3151 3152 3151 3151 3149 3146 3145 3143 3140 3138 3136
3148 3147 3145 3145 3145 3148 3149 3147 3145 3145 3147 3149 3150 3147 3147 3146 3147 3146 3148 3150 3151 3151 3150 3149 3149 3147 3148 3149 3148 3149 3148 3147 3146 3148 3148 3147 3149 3149 3148 3147 3145 3145 3143 3141 3140 3137 3134 3129 3129
3145 3143 3143 3143 3144 3144 3145 3142 3141 3140 3139 3140 3143 3144 3143 3144 3144 3142 3143 3145 3146 3146 3147 3147 3146 3145 3145 3144 3144 3143 3142 3142 3142 3142 3140 3142 3143 3140 3140 3139 3140 3139 3135 3134 3133 3130 3127 3123 3119
3142 3141 3143 3143 3143 3144 3141 3145 3136 3133 3135 3138 3141 3143 3144 3145 3142 3141 3138 3141 3141 3141 3142 3143 3143 3143 3142 3140 3139 3139 3139 3136 3134 3134 3133 3132 3134 3133 3131 3132 3133 3130 3128 3127 3124 3121 3119 3115 3110
3141 3140 3140 3141 3143 3143 3137 3140 3140 3136 3137 3139 3143 3145 3145 3143 3142 3142 3141 3136 3136 3136 3136 3138 3137 3137 3138 3138 3137 3137 3136 3133 3131 3128 3126 3125 3126 3123 3123 3123 3123 3121 3119 3117 3115 3113 3110 3107 3103
3142 3142 3140 3139 3141 3142 3135 3135 3141 3139 3138 3140 3141 3142 3141 3141 3140 3140 3138 3136 3135 3133 3132 3129 3129 3130 3132 3132 3131 3131 3130 3129 3127 3124 3123 3121 3120 3118 3115 3114 3114 3113 3111 3109 3107 3105 3102 3099 3095
3141 3143 3144 3146 3146 3143 3138 3141 3149 3144 3142 3142 3143 3142 3141 3141 3140 3139 3138 3137 3137 3135 3131 3128 3125 3123 3121 3121 3122 3122 3121 3121 3120 3119 3118 3115 3113 3111 3108 3107 3106 3105 3103 3101 3099 3096 3094 3091 3087
3141 3142 3144 3143 3141 3141 3146 3147 3146 3145 3145 3145 3145 3144 3143 3140 3138 3137 3135 3133 3129 3127 3124 3121 3120 3117 3115 3113 3113 3111 3111 3110 3109 3111 3107 3105 3102 3100 3099 3098 3098 3098 3096 3093 3090 3088 3086 3083 3080
3141 3144 3143 3143 3145 3145 3139 3146 3150 3148 3146 3144 3145 3140 3139 3137 3133 3131 3129 3126 3122 3120 3115 3113 3112 3110 3108 3107 3105 3102 3100 3097 3095 3094 3092 3090 3087 3089 3089 3087 3086 3086 3083 3083 3082 3080 3077 3075 3072
3143 3142 3144 3145 3146 3146 3147 3142 3145 3147 3146 3143 3141 3136 3131 3128 3127 3125 3122 3119 3117 3116 3113 3109 3107 3104 3100 3096 3093 3090 3090 3088 3085 3082 3080 3080 3074 3074 3073 3075 3073 3073 3072 3071 3073 3070 3067 3065 3061
3141 3141 3142 3143 3145 3144 3144 3143 3145 3143 3136 3133 3130 3128 3125 3123 3119 3116 3114 3112 3110 3107 3105 3101 3097 3094 3091 3085 3080 3077 3074 3073 3072 3071 3069 3068 3066 3066 3065 3064 3064 3062 3062 3062 3059 3058 3059 3054 3050